SCP
0 0 0 0 0 0 0 0 0 0 0 0 0 0 0 0 0 0 0 0 0 0 0 0 0 0 0 0 0 0 0 0 0 0 0 0 0 0 0 0 0 0 0 0 0 0 0 0 0
0 0 0 0 0 0 0 0 0 0 0 0 0 0 0 0 0 0 0 0 0 0 0 0 0 0 0 0 0 0 0 0 0 0 0 0 0 0 0 0 0 0 0 0 0 0 0 0 0
0 0 0 0 0 0 0 0 0 0 0 0 0 0 0 0 0 0 0 0 0 0 0 0 0 0 0 0 0 0 0 0 0 0 0 0 0 0 0 0 0 0 0 0 0 0 0 0 0
0 0 0 0 0 0 0 0 0 0 0 0 0 0 0 0 0 0 0 0 0 0 0 0 0 0 0 0 0 0 0 0 0 0 0 0 0 0 0 0 0 0 0 0 0 0 0 0 0
0 0 0 0 0 0 0 0 0 0 0 0 0 0 0 0 0 0 0 0 0 0 0 0 0 0 0 0 0 0 0 0 0 0 0 0 0 0 0 0 0 0 0 0 0 0 0 0 0
0 0 0 0 0 0 0 0 0 0 0 0 0 0 0 0 0 0 0 0 0 0 0 0 0 0 0 0 0 0 0 0 0 0 0 0 0 0 0 0 0 0 0 0 0 0 0 0 0
0 0 0 0 0 0 0 0 0 0 0 0 0 0 0 0 0 0 0 0 0 0 0 0 0 0 0 0 0 0 0 0 0 0 0 0 0 0 0 0 0 0 0 0 0 0 0 0 0
0 0 0 0 0 0 0 0 0 0 0 0 0 0 0 0 0 0 0 0 0 0 0 0 0 0 0 0 0 0 0 0 0 0 0 0 0 0 0 0 0 0 0 0 0 0 0 0 0
0 0 0 0 0 0 0 0 0 0 0 0 0 0 0 0 0 0 0 0 0 0 0 0 0 0 0 0 0 0 0 0 0 0 0 0 0 0 0 0 0 0 0 0 0 0 0 0 0
0 0 0 0 0 0 0 0 0 0 0 0 0 0 0 0 0 0 0 0 0 0 0 0 0 0 0 0 0 0 0 0 0 0 0 0 0 0 0 0 0 0 0 0 0 0 0 0 0
0 0 0 0 0 0 0 0 0 0 0 0 0 0 0 0 0 0 0 0 0 0 0 0 0 0 0 0 0 0 0 0 0 0 0 0 0 0 0 0 0 0 0 0 0 0 0 0 0
0 0 0 0 0 0 0 0 0 0 0 0 0 0 0 0 0 0 0 0 0 0 0 0 0 0 0 0 0 0 0 0 0 0 0 0 0 0 0 0 0 0 0 0 0 0 0 0 0
0 0 0 0 0 0 0 0 0 0 0 0 0 0 0 0 0 0 0 0 0 0 0 0 0 0 0 0 0 0 0 0 0 0 0 0 0 0 0 0 0 0 0 0 0 0 0 0 0
0 0 0 0 0 0 0 0 0 0 0 0 0 0 0 0 0 0 0 0 0 0 0 0 0 0 0 0 0 0 0 0 0 0 0 0 0 0 0 0 0 0 0 0 0 0 0 0 0
0 0 0 0 0 0 0 0 0 0 0 0 0 0 0 0 0 0 0 0 0 0 0 0 0 0 0 0 0 0 0 0 0 0 0 0 0 0 0 0 0 0 0 0 0 0 0 0 0
0 0 0 0 0 0 0 0 0 0 0 0 0 0 0 0 0 0 0 0 0 0 0 0 0 0 0 0 0 0 0 0 0 0 0 0 0 0 0 0 0 0 0 0 0 0 0 0 0
0 0 0 0 0 0 0 0 0 0 0 0 0 0 0 0 0 0 0 0 0 0 0 0 0 0 0 0 0 0 0 0 0 0 0 0 0 0 0 0 0 0 0 0 0 0 0 0 0
0 0 0 0 0 0 0 0 0 0 0 0 0 0 0 0 0 0 0 0 0 0 0 0 0 0 0 0 0 0 0 0 0 0 0 0 0 0 0 0 0 0 0 0 0 0 0 0 0
0 0 0 0 0 0 0 0 0 0 0 0 0 0 0 0 0 0 0 0 0 0 0 0 0 0 0 0 0 0 0 0 0 0 0 0 0 0 0 0 0 0 0 0 0 0 0 0 0
0 0 0 0 0 0 0 0 0 0 0 0 0 0 0 0 0 0 0 0 0 0 0 0 0 0 0 0 0 0 0 0 0 0 0 0 0 0 0 0 0 0 0 0 0 0 0 0 0
0 0 0 0 0 0 0 0 0 0 0 0 0 0 0 0 0 0 0 0 0 0 0 0 0 0 0 0 0 0 0 0 0 0 0 0 0 0 0 0 0 0 0 0 0 0 0 0 0
0 0 0 0 0 0 0 0 0 0 0 0 0 0 0 0 0 0 0 0 0 0 0 0 0 0 0 0 0 0 0 0 0 0 0 0 0 0 0 0 0 0 0 0 0 0 0 0 0
0 0 0 0 0 0 0 0 0 0 0 0 0 0 0 0 0 0 0 0 0 0 0 0 0 0 0 0 0 0 0 0 0 0 0 0 0 0 0 0 0 0 0 0 0 0 0 0 0
0 0 0 0 0 0 0 0 0 0 0 0 0 0 0 0 0 0 0 0 0 0 0 0 0 0 0 0 0 0 0 0 0 0 0 0 0 0 0 0 0 0 0 0 0 0 0 0 0
0 0 0 0 0 0 0 0 0 0 0 0 0 0 0 0 0 0 0 0 0 0 0 0 0 0 0 0 0 0 0 0 0 0 0 0 0 0 0 0 0 0 0 0 0 0 0 0 0
0 0 0 0 0 0 0 0 0 0 0 0 0 0 0 0 0 0 0 0 0 0 0 0 0 0 0 0 0 0 0 0 0 0 0 0 0 0 0 0 0 0 0 0 0 0 0 0 0
0 0 0 0 0 0 0 0 0 0 0 0 0 0 0 0 0 0 0 0 0 0 0 0 0 0 0 0 0 0 0 0 0 0 0 0 0 0 0 0 0 0 0 0 0 0 0 0 0
0 0 0 0 0 0 0 0 0 0 0 0 0 0 0 0 0 0 0 0 0 0 0 0 0 0 0 0 0 0 0 0 0 0 0 0 0 0 0 0 0 0 0 0 0 0 0 0 0
0 0 0 0 0 0 0 0 0 0 0 0 0 0 0 0 0 0 0 0 0 0 0 0 0 0 0 0 0 0 0 0 0 0 0 0 0 0 0 0 0 0 0 0 0 0 0 0 0
0 0 0 0 0 0 0 0 0 0 0 0 0 0 0 0 0 0 0 0 0 0 0 0 0 0 0 0 0 0 0 0 0 0 0 0 0 0 0 0 0 0 0 0 0 0 0 0 0
Wind_Speed
9 4 2 3 3 3 3 3 3 4 4 4 5 4 5 5 4 5 4 4 5 6 6 6 6 8 9 10 9 9 9 9 10 10 9 9 9 9 9 9 9 9 9 10 10 10 9 9 9
6 3 2 2 4 6 5 4 5 4 6 6 6 5 6 6 6 5 3 3 5 6 6 6 7 8 9 10 10 9 9 9 9 9 10 9 9 9 9 9 9 9 9 9 10 10 9 9 8
3 2 1 2 3 5 5 5 5 7 6 3 5 5 5 5 4 3 3 4 5 6 6 7 7 9 9 9 9 9 9 9 9 9 9 9 9 9 9 9 9 8 9 9 9 9 9 8 8
2 2 1 3 4 1 2 4 5 7 5 4 5 7 6 5 4 3 4 5 6 6 6 7 7 9 9 9 9 9 8 8 8 8 8 8 8 9 8 8 8 8 8 8 8 8 8 7 7
1 2 4 4 4 3 3 3 4 5 4 4 5 6 6 5 5 5 5 5 6 6 6 7 8 8 8 8 8 8 8 8 8 8 8 8 8 8 8 8 8 8 8 7 7 7 7 7 7
1 2 5 7 6 4 3 2 4 5 5 4 4 6 6 5 6 5 5 5 6 6 6 6 9 9 9 9 8 8 8 8 8 8 9 8 8 8 7 7 7 7 7 7 7 6 6 6 6
1 3 5 6 7 5 3 2 3 4 5 3 1 5 5 4 5 4 5 6 6 6 6 5 5 6 8 9 9 8 8 8 8 8 8 8 8 8 8 7 7 6 6 7 7 6 6 5 5
1 2 5 6 8 5 3 3 3 3 4 4 2 4 4 2 2 4 6 6 6 6 5 5 5 4 4 5 8 8 8 8 8 8 8 7 7 7 7 6 7 7 6 6 6 6 5 5 5
1 3 6 6 6 5 5 4 4 4 6 4 4 4 4 4 4 5 6 6 6 5 5 4 4 4 3 4 5 6 7 7 6 6 7 4 3 3 4 7 7 7 6 6 6 5 5 4 3
0 4 4 1 3 6 6 4 4 5 6 4 4 5 6 6 6 6 6 5 5 4 4 3 3 3 3 3 2 2 3 4 4 3 3 2 2 3 3 5 6 5 5 4 5 4 3 2 2
2 2 3 4 5 6 6 5 3 5 4 2 3 4 6 6 6 6 5 4 4 4 4 3 3 3 3 2 2 2 2 2 3 3 3 2 2 2 2 2 2 2 3 3 2 2 2 3 3
5 4 4 4 5 4 5 5 5 4 4 3 4 5 7 6 5 5 4 4 3 4 4 4 3 3 3 2 2 2 2 2 2 3 3 2 2 2 2 2 3 3 2 3 2 2 3 3 2
5 5 6 7 8 7 7 6 5 4 5 4 5 6 6 6 5 4 4 3 3 3 4 4 4 4 2 2 2 2 2 2 2 2 3 3 2 2 2 2 2 3 3 3 3 2 3 3 2
7 8 7 5 6 5 7 5 3 3 3 4 5 6 5 5 4 4 4 3 3 3 3 3 3 4 3 2 1 1 1 2 2 2 4 3 3 2 2 2 2 3 3 3 3 3 3 2 2
7 7 5 4 3 2 3 4 2 3 2 4 4 4 5 5 4 4 3 2 2 2 2 3 3 3 3 3 2 2 2 2 2 2 3 4 4 3 3 2 3 3 3 3 3 3 3 2 2
3 3 3 2 1 0 3 4 4 3 3 4 3 3 4 4 4 3 3 2 2 2 2 3 2 3 3 3 2 2 2 2 2 2 3 4 4 4 2 2 3 4 3 3 3 3 3 3 2
3 3 3 2 2 0 2 3 3 3 4 4 3 3 3 3 3 3 3 3 2 2 2 2 3 3 3 2 2 2 2 3 2 3 3 3 4 4 3 2 3 3 3 3 3 3 3 3 3
4 4 3 2 2 2 3 3 2 3 4 4 4 3 3 3 2 2 2 2 2 2 2 2 3 3 3 2 2 2 2 2 2 2 3 4 3 4 3 3 4 3 3 3 3 4 4 4 4
5 5 4 2 1 0 2 3 3 3 3 3 3 3 3 2 1 2 2 2 2 2 2 2 2 3 3 2 2 2 2 2 2 2 3 4 4 4 3 3 3 3 3 3 4 4 4 4 4
5 5 3 2 1 0 1 3 3 3 4 3 3 3 2 2 1 1 2 2 2 2 2 2 2 2 2 2 2 1 2 1 1 2 3 4 4 4 3 4 3 4 3 4 4 4 3 3 3
2 2 3 2 1 1 2 3 4 3 3 2 2 2 2 1 1 0 1 1 2 2 2 2 2 2 2 3 1 1 1 1 1 2 3 3 4 3 3 4 3 4 3 3 4 4 3 3 3
2 1 3 3 2 1 1 3 4 2 3 2 2 2 2 1 1 1 1 1 2 2 2 2 2 3 3 2 1 1 1 2 2 2 2 3 3 3 3 3 3 3 3 4 4 4 4 3 3
2 2 2 2 1 1 1 3 2 2 3 2 2 3 2 2 1 0 1 1 1 2 2 2 2 3 3 2 2 1 1 1 1 2 3 2 2 3 4 3 3 3 3 3 4 4 4 3 3
3 3 2 1 2 2 1 3 2 2 3 2 1 1 2 1 1 0 1 2 2 2 2 2 2 3 3 3 2 2 2 2 2 3 3 3 2 3 4 4 3 3 3 4 4 3 4 3 3
1 2 1 1 1 1 1 3 4 2 2 3 2 1 1 1 0 1 1 2 2 3 3 2 2 2 3 3 2 2 2 2 2 2 3 3 3 3 4 4 4 3 4 4 4 3 3 3 3
1 1 0 1 1 0 1 4 2 1 2 2 2 1 0 0 0 0 1 1 2 2 3 3 2 3 3 3 2 2 2 1 1 2 2 3 3 3 4 3 3 4 4 4 4 3 3 3 3
2 2 2 2 2 1 2 3 3 0 1 1 0 0 1 0 0 1 1 1 1 2 2 2 2 3 3 3 2 2 2 2 2 2 2 2 2 3 3 3 3 4 4 3 3 2 3 3 3
3 2 1 1 1 1 2 3 2 2 1 1 1 0 0 0 1 1 1 1 1 1 2 2 2 2 2 2 2 2 2 2 2 2 2 2 3 3 3 3 4 4 3 3 3 3 3 3 4
2 2 2 2 1 1 2 2 1 2 1 2 2 1 1 1 1 1 1 1 1 1 1 2 2 2 2 2 2 2 2 2 2 1 2 2 2 3 3 3 4 4 4 3 3 3 3 3 4
1 0 2 1 2 1 2 4 1 2 2 2 2 2 2 1 1 1 1 1 1 1 1 1 1 2 2 2 2 2 2 2 2 2 2 2 2 2 2 3 3 3 4 4 3 4 4 4 4
Wind_Direction
330 330 262 232 210 191 169 127 124 125 106 80 81 90 87 60 36 75 73 112 116 123 119 114 91 95 95 97 98 102 102 101 98 96 94 92 90 86 81 78 76 75 73 73 70 69 69 69 64
327 309 236 232 223 194 164 148 138 100 105 111 86 83 86 73 45 67 88 103 120 119 118 109 88 91 93 93 91 91 94 94 94 93 91 88 86 82 78 74 71 72 71 70 68 68 67 66 64
308 283 258 208 210 206 159 137 129 106 100 105 96 66 59 60 51 54 67 118 121 117 110 96 84 91 91 89 89 87 86 86 86 87 87 84 82 77 76 72 68 66 67 66 65 66 65 63 61
272 193 206 211 170 151 131 124 136 137 111 73 109 95 77 46 20 37 91 115 117 111 102 93 77 87 87 85 85 84 82 83 82 81 80 78 76 73 70 66 63 60 63 63 61 61 62 60 57
259 211 191 185 173 133 117 115 143 146 127 98 112 106 90 42 36 75 100 107 106 99 92 90 69 75 78 80 80 78 75 79 78 75 73 73 73 71 68 63 58 58 55 57 56 57 55 54 52
188 204 206 195 174 147 109 85 142 119 114 100 103 110 93 51 48 78 93 95 95 95 92 91 69 65 66 66 69 68 68 73 73 71 69 69 69 68 64 58 53 54 51 49 48 50 50 47 46
213 201 203 186 173 167 130 86 117 131 115 79 38 111 104 62 45 83 96 92 89 86 84 84 86 80 67 62 57 60 61 64 67 66 63 60 61 60 56 51 47 46 45 44 43 45 45 43 42
337 173 176 184 180 170 118 109 81 89 99 70 40 108 116 88 67 105 104 95 87 79 76 72 73 78 85 83 63 58 60 60 62 61 57 56 58 58 52 46 43 41 40 38 37 41 41 38 38
262 201 194 187 181 153 127 119 84 74 100 84 58 54 89 120 119 112 103 90 83 73 69 69 70 68 71 82 74 68 67 61 63 67 59 60 61 57 55 41 33 32 32 32 35 35 33 28 50
270 203 195 157 148 134 121 109 111 122 104 91 81 62 97 114 121 112 100 87 75 67 60 59 61 61 65 69 82 77 77 72 61 60 62 55 45 38 28 45 30 27 23 24 31 27 24 350 10
70 140 124 98 103 120 117 94 84 138 108 94 119 111 117 116 113 107 99 93 82 71 55 39 49 59 62 69 67 67 70 65 56 48 45 42 40 35 25 28 30 19 9 0 9 10 4 358 353
100 77 87 99 92 104 111 112 92 73 76 62 107 126 126 119 110 101 95 83 71 64 53 37 30 48 56 58 63 57 56 58 54 42 34 35 31 19 20 11 7 0 355 348 345 342 349 347 348
108 99 81 82 84 85 95 101 100 86 60 71 104 115 119 115 106 94 89 81 67 58 46 36 29 31 42 58 55 58 52 52 54 44 32 27 22 6 10 9 2 355 348 341 335 334 335 334 341
111 110 98 79 84 82 96 97 108 98 65 85 105 116 118 111 109 103 87 74 58 45 34 25 29 29 29 44 61 60 53 53 47 44 34 28 20 11 5 5 0 353 344 336 331 332 326 324 330
124 118 100 57 76 113 117 97 110 111 113 105 107 111 110 105 102 97 92 82 61 41 33 22 21 28 30 26 42 57 50 48 46 41 34 31 25 15 11 5 358 349 338 333 330 333 324 321 323
142 149 149 63 41 31 196 177 134 138 144 129 130 128 118 105 96 85 74 74 67 50 37 29 24 26 27 27 29 52 48 44 37 34 32 29 25 16 13 8 360 347 338 336 333 330 325 318 316
144 160 166 131 42 38 179 180 139 156 164 154 153 149 138 118 90 75 66 57 53 45 35 33 24 21 15 19 36 49 51 48 40 34 29 20 19 12 5 360 355 346 345 344 338 331 321 315 315
147 148 154 147 46 69 161 177 145 160 176 170 165 165 162 146 107 65 56 53 51 48 35 36 26 20 11 13 25 42 43 40 38 35 25 18 14 10 360 357 354 350 344 344 339 331 328 314 311
128 135 140 140 15 127 193 211 193 172 181 186 192 192 186 163 114 67 44 39 46 39 35 28 19 16 13 7 359 8 3 11 22 23 24 20 16 10 4 359 352 349 345 340 334 327 330 334 327
126 125 134 125 57 254 211 252 215 183 196 203 207 211 212 191 137 73 41 33 30 23 20 18 5 3 1 351 344 343 331 343 15 19 17 17 14 8 4 0 352 347 338 344 343 334 317 327 340
95 150 158 145 89 124 257 230 198 171 190 213 228 227 223 217 207 206 13 19 21 11 356 4 357 345 352 358 5 21 20 347 358 1 3 7 3 7 6 354 349 343 339 338 339 333 320 314 325
138 158 159 157 183 158 272 242 203 197 212 222 234 225 223 212 235 282 347 6 10 353 346 4 2 1 5 3 354 338 338 338 343 344 349 357 5 3 1 354 348 343 342 341 338 337 326 318 313
106 130 141 163 178 199 205 250 228 205 240 241 234 224 220 211 188 327 340 2 18 1 348 3 15 15 11 7 0 339 350 354 347 348 348 354 6 7 2 357 352 348 343 344 341 336 333 330 320
145 144 125 147 200 225 206 241 257 220 235 246 259 222 214 209 175 74 37 30 21 11 360 2 19 19 11 14 15 15 19 5 352 350 348 348 355 2 4 357 354 349 344 342 336 334 333 330 325
136 179 160 163 206 223 119 241 261 270 253 252 271 276 242 189 160 43 30 20 18 12 6 360 4 10 10 15 16 6 1 351 340 339 345 347 346 348 352 355 352 350 347 342 340 337 336 335 329
51 318 333 220 228 341 180 241 270 14 326 314 287 284 309 124 142 21 7 19 23 18 10 6 2 3 2 6 9 5 355 341 342 347 341 341 335 335 344 348 347 344 342 337 336 335 337 337 335
113 80 21 90 79 285 258 275 285 296 292 312 258 217 220 177 72 18 16 26 25 18 10 7 9 13 9 2 357 9 6 352 340 340 338 333 331 336 345 344 340 339 338 335 334 339 338 334 332
29 111 134 140 153 285 295 269 261 244 271 298 268 239 285 336 27 8 339 6 16 10 5 15 9 5 2 359 359 10 10 0 345 341 350 347 340 340 339 342 343 337 338 343 343 337 334 333 332
67 92 81 97 352 252 285 282 213 220 237 262 277 281 277 286 275 256 270 331 359 10 6 3 358 351 356 1 357 357 359 355 347 346 341 337 343 346 350 353 351 344 342 348 344 341 340 338 335
319 220 194 201 171 216 266 280 65 229 264 283 286 296 298 285 270 256 272 322 325 339 350 343 337 340 342 349 350 346 351 346 341 339 336 342 351 348 347 352 354 345 347 348 342 341 339 335 336